USA 176 (DSP 22)

Last updated on Sun Jun 21 2026 00:03:03 GMT+0000 (Coordinated Universal Time)

1 28158U 04004A 26171.14049326 -.00000306 00000+0 00000+0 0 9996 2 28158 12.0668 26.0523 0001387 309.2865 294.2599 1.00275597 32965
UTC large
Height (km)
Speed (km/s)
/
Latitude / Longitude
Inclination (degrees)
Orbital Period (minutes)
Azimuth
Elevation
Range (km)
Doppler Factor

Next 0 passes for location: London (51.5072 / 0.1276)

No passes found over London.
USA 176 (DSP 22)